Bloomington, IL

7:16 AM CST on February 23, 2018 (GMT -0600)
Central Ill Regional

Weather History for KBMI - May, 2013

Change the Weather History Date:

Thursday, May 16, 2013

  Actual Average Record
Temperature  
Mean Temperature 72 °F -  
Max Temperature 82 °F 79 °F 89 °F (2001)
Min Temperature 63 °F 52 °F 36 °F (2011)
Cooling Degree Days 8    
Growing Degree Days 22 (Base 50)    
Moisture  
Dew Point 54 °F    
Average Humidity 53    
Maximum Humidity 76    
Minimum Humidity 34    
Precipitation  
Precipitation 0.00 in - - ()
Sea Level Pressure  
Sea Level Pressure 29.89 in    
Wind  
Wind Speed 6 mph (West)    
Max Wind Speed 16 mph    
Max Gust Speed -    
Visibility 10 miles    
Events Rain , Thunderstorm    
Averages and records for this station are not official NWS values.
T = Trace of Precipitation, MM = Missing Value Source: NWS Daily Summary

Daily Weather History Graph

Daily Weather History Graph

Search for Another Location

Airport or City:

Trip Planner

Search our weather history database for the weather conditions in past years. The results will help you decide how hot, cold, wet, or windy it might be!

Date:

Astronomy

May. 16, 2013 Rise Set
Actual Time 5:38 AM CDT 8:06 PM CDT
Civil Twilight 5:07 AM CDT 8:37 PM CDT
Nautical Twilight 4:28 AM CDT 9:16 PM CDT
Astronomical Twilight 3:45 AM CDT 9:59 PM CDT
Moon 11:11 AM CDT (5/16) 12:27 AM CDT (5/16)
Length of Visible Light 15h 30m
Length of Day
14h 28m
Waxing Crescent, 36% of the Moon is Illuminated
May 16
Waxing Crescent
May 17
First Quarter
May 24
Full
May 31
Last Quarter
Jun 8
New

Hourly Weather History & Observations

Time (CDT) Temp. Heat Index Dew Point Humidity Pressure Visibility Wind Dir Wind Speed Gust Speed Precip Events Conditions
12:03 AM 71.6 °F - 55.4 °F 57% 29.87 in 10.0 mi NW 3.5 mph - N/A Thunderstorm Overcast
12:44 AM 73.4 °F - 51.8 °F 47% 29.87 in 10.0 mi NNW 3.5 mph - 0.00 in Rain Light Rain
12:56 AM 72.9 °F - 54.0 °F 51% 29.83 in 10.0 mi Calm Calm - 0.00 in Rain Light Rain
1:16 AM 71.6 °F - 51.8 °F 50% 29.88 in 10.0 mi Calm Calm - 0.00 in Thunderstorm Scattered Clouds
1:45 AM 69.8 °F - 50.0 °F 49% 29.88 in 10.0 mi NNE 5.8 mph - 0.00 in   Mostly Cloudy
1:56 AM 68.9 °F - 50.9 °F 53% 29.85 in 10.0 mi North 6.9 mph - 0.00 in   Scattered Clouds
2:56 AM 65.8 °F - 52.9 °F 63% 29.85 in 10.0 mi WNW 8.1 mph - N/A   Clear
3:56 AM 66.9 °F - 50.9 °F 56% 29.83 in 10.0 mi North 10.4 mph - N/A   Clear
4:56 AM 64.9 °F - 48.9 °F 56% 29.85 in 10.0 mi North 4.6 mph - N/A   Clear
5:56 AM 63.9 °F - 50.0 °F 61% 29.86 in 10.0 mi NNE 5.8 mph - N/A   Clear
6:56 AM 64.9 °F - 50.9 °F 60% 29.90 in 10.0 mi NW 4.6 mph - N/A   Partly Cloudy
7:56 AM 66.9 °F - 50.0 °F 54% 29.91 in 10.0 mi NNW 8.1 mph - N/A   Clear
8:56 AM 68.0 °F - 50.9 °F 54% 29.93 in 10.0 mi North 4.6 mph - N/A   Clear
9:56 AM 70.9 °F - 54.0 °F 55% 29.92 in 10.0 mi NNE 6.9 mph - N/A   Clear
10:56 AM 77.0 °F - 52.0 °F 42% 29.92 in 10.0 mi Variable 5.8 mph - N/A   Clear
11:56 AM 81.0 °F - 50.0 °F 34% 29.90 in 10.0 mi NE 10.4 mph - N/A   Clear
12:56 PM 75.9 °F - 50.9 °F 41% 29.91 in 10.0 mi SE 9.2 mph - N/A   Partly Cloudy
1:56 PM 79.0 °F - 52.0 °F 39% 29.91 in 10.0 mi Variable 4.6 mph - N/A   Partly Cloudy
2:56 PM 81.9 °F - 52.0 °F 35% 29.88 in 10.0 mi South 10.4 mph - N/A   Partly Cloudy
3:56 PM 82.9 °F - 52.9 °F 35% 29.86 in 10.0 mi South 10.4 mph - N/A   Partly Cloudy
4:56 PM 81.9 °F 81.8 °F 57.9 °F 44% 29.86 in 10.0 mi SSW 10.4 mph - N/A   Partly Cloudy
5:56 PM 81.0 °F 81.1 °F 57.9 °F 45% 29.86 in 10.0 mi South 10.4 mph - N/A   Partly Cloudy
6:56 PM 77.9 °F - 56.8 °F 48% 29.87 in 10.0 mi SSW 16.1 mph - N/A   Clear
7:56 PM 74.8 °F - 59.9 °F 60% 29.88 in 10.0 mi South 11.5 mph - N/A   Partly Cloudy
8:56 PM 70.9 °F - 59.9 °F 68% 29.90 in 10.0 mi SSW 8.1 mph - N/A   Clear
9:56 PM 68.9 °F - 59.0 °F 71% 29.94 in 10.0 mi South 4.6 mph - N/A   Clear
10:56 PM 68.0 °F - 59.9 °F 75% 29.94 in 10.0 mi South 8.1 mph - N/A   Scattered Clouds
11:56 PM 66.9 °F - 59.0 °F 76% 29.94 in 10.0 mi South 8.1 mph - N/A   Partly Cloudy